When you browse on this site, cookies collect data to enhance your experience and personalize the content and advertising you see.
Visit our Privacy Policy to learn more. By continuing to use the site, you agree to this use of cookies and data.
  • In Latvia
  • List of Countries
  • For 7 days
  • Water Temperature
  • Weather Map
  • Weather Widgets
  • user-avatar
    Login

    Hourly Weather Neshville

    Today, 16 September, Monday

    Time Temperature Precipitation Wind Pressure Humidity
    00:00 +27°C° 0 mm 1 mps 752 mmHg 72%
    01:00 +27°C° 0 mm 1 mps 752 mmHg 74%
    02:00 +24°C° 0 mm 0 mps 752 mmHg 76%
    03:00 +24°C° 0 mm 0 mps 752 mmHg 77%
    04:00 +24°C° 0 mm 0 mps 752 mmHg 77%
    05:00 +24°C° 0 mm 0 mps 752 mmHg 78%
    06:00 +24°C° 0 mm 0 mps 753 mmHg 78%
    07:00 +26°C° 0 mm 0 mps 753 mmHg 70%
    08:00 +30°C° 0 mm 1 mps 753 mmHg 62%
    09:00 +32°C° 0 mm 1 mps 753 mmHg 55%
    10:00 +33°C° 0 mm 1 mps 753 mmHg 50%
    11:00 +36°C° 0 mm 2 mps 752 mmHg 45%
    12:00 +37°C° 0 mm 2 mps 752 mmHg 41%
    13:00 +37°C° 0 mm 2 mps 751 mmHg 41%
    14:00 +37°C° 0 mm 2 mps 750 mmHg 42%
    15:00 +36°C° 0 mm 2 mps 750 mmHg 42%
    16:00 +35°C° 0.1 mm 2 mps 750 mmHg 46%
    17:00 +33°C° 0.1 mm 1 mps 750 mmHg 49%
    18:00 +29°C° 0.1 mm 0 mps 750 mmHg 53%
    19:00 +28°C° 0.2 mm 0 mps 750 mmHg 56%
    20:00 +28°C° 0.2 mm 0 mps 750 mmHg 59%
    21:00 +27°C° 0.2 mm 0 mps 751 mmHg 62%
    22:00 +26°C° 0 mm 0 mps 750 mmHg 65%
    23:00 +28°C° 0 mm 1 mps 750 mmHg 68%

    Tomorrow, 17 September, Tuesday

    Time Temperature Precipitation Wind Pressure Humidity
    00:00 +27°C° 0 mm 1 mps 750 mmHg 70%
    01:00 +27°C° 0 mm 1 mps 750 mmHg 72%
    02:00 +26°C° 0 mm 1 mps 750 mmHg 75%
    03:00 +26°C° 0 mm 1 mps 750 mmHg 77%
    04:00 +26°C° 0 mm 1 mps 750 mmHg 79%
    05:00 +26°C° 0 mm 1 mps 750 mmHg 80%
    06:00 +25°C° 0 mm 1 mps 751 mmHg 82%
    07:00 +27°C° 0 mm 1 mps 751 mmHg 77%
    08:00 +29°C° 0 mm 1 mps 751 mmHg 72%
    09:00 +30°C° 0 mm 2 mps 751 mmHg 67%
    10:00 +31°C° 0 mm 2 mps 751 mmHg 62%
    11:00 +32°C° 0 mm 2 mps 751 mmHg 57%
    12:00 +34°C° 0 mm 2 mps 751 mmHg 51%
    13:00 +34°C° 0 mm 3 mps 750 mmHg 52%
    14:00 +34°C° 0 mm 3 mps 750 mmHg 53%
    15:00 +34°C° 0 mm 3 mps 749 mmHg 54%
    16:00 +33°C° 0 mm 3 mps 749 mmHg 59%
    17:00 +30°C° 0 mm 2 mps 749 mmHg 65%
    18:00 +29°C° 0 mm 2 mps 750 mmHg 71%
    19:00 +28°C° 0 mm 2 mps 750 mmHg 73%
    20:00 +28°C° 0 mm 2 mps 750 mmHg 75%
    21:00 +27°C° 0 mm 2 mps 751 mmHg 78%
    22:00 +27°C° 0 mm 2 mps 750 mmHg 79%
    23:00 +26°C° 0 mm 2 mps 750 mmHg 81%

    Day after tomorrow, 18 September, Wednesday

    Time Temperature Precipitation Wind Pressure Humidity
    00:00 +26°C° 0 mm 1 mps 750 mmHg 83%
    01:00 +25°C° 0 mm 1 mps 750 mmHg 83%
    02:00 +25°C° 0 mm 1 mps 750 mmHg 84%
    03:00 +24°C° 0 mm 1 mps 750 mmHg 85%
    04:00 +24°C° 0 mm 1 mps 750 mmHg 85%
    05:00 +24°C° 0 mm 1 mps 750 mmHg 85%
    06:00 +24°C° 0 mm 1 mps 750 mmHg 85%
    07:00 +26°C° 0 mm 1 mps 751 mmHg 78%
    08:00 +27°C° 0 mm 1 mps 751 mmHg 70%
    09:00 +29°C° 0 mm 1 mps 751 mmHg 63%
    10:00 +30°C° 0 mm 1 mps 751 mmHg 57%
    11:00 +32°C° 0 mm 2 mps 751 mmHg 52%
    12:00 +34°C° 0 mm 2 mps 751 mmHg 46%
    13:00 +34°C° 0 mm 2 mps 750 mmHg 46%
    14:00 +34°C° 0 mm 2 mps 750 mmHg 46%
    15:00 +34°C° 0 mm 2 mps 749 mmHg 46%
    16:00 +31°C° 0 mm 2 mps 750 mmHg 52%
    17:00 +30°C° 0 mm 2 mps 750 mmHg 57%
    18:00 +28°C° 0 mm 2 mps 750 mmHg 63%
    19:00 +28°C° 0 mm 1 mps 750 mmHg 66%
    20:00 +27°C° 0 mm 1 mps 751 mmHg 69%
    21:00 +26°C° 0 mm 1 mps 751 mmHg 73%
    22:00 +26°C° 0 mm 1 mps 751 mmHg 76%
    23:00 +26°C° 0 mm 1 mps 751 mmHg 78%

    19 September, Thursday

    Time Temperature Precipitation Wind Pressure Humidity
    00:00 +25°C° 0 mm 1 mps 751 mmHg 81%
    01:00 +25°C° 0 mm 1 mps 751 mmHg 82%
    02:00 +25°C° 0 mm 2 mps 751 mmHg 83%
    03:00 +24°C° 0 mm 2 mps 751 mmHg 84%
    04:00 +24°C° 0 mm 2 mps 752 mmHg 84%
    05:00 +24°C° 0 mm 2 mps 752 mmHg 84%
    06:00 +24°C° 0 mm 3 mps 752 mmHg 84%
    07:00 +25°C° 0 mm 3 mps 753 mmHg 77%
    08:00 +26°C° 0 mm 3 mps 753 mmHg 69%
    09:00 +27°C° 0 mm 4 mps 754 mmHg 62%
    10:00 +28°C° 0 mm 4 mps 754 mmHg 60%
    11:00 +29°C° 0 mm 4 mps 754 mmHg 57%
    12:00 +30°C° 0 mm 4 mps 754 mmHg 55%
    13:00 +30°C° 0 mm 4 mps 753 mmHg 55%
    14:00 +30°C° 0 mm 4 mps 753 mmHg 55%
    15:00 +30°C° 0 mm 3 mps 752 mmHg 56%
    16:00 +29°C° 0 mm 3 mps 753 mmHg 60%
    17:00 +27°C° 0 mm 3 mps 753 mmHg 65%
    18:00 +26°C° 0 mm 3 mps 753 mmHg 70%
    19:00 +26°C° 0 mm 3 mps 753 mmHg 70%
    20:00 +25°C° 0 mm 3 mps 753 mmHg 70%
    21:00 +24°C° 0 mm 3 mps 754 mmHg 70%
    22:00 +24°C° 0 mm 3 mps 754 mmHg 69%
    23:00 +24°C° 0 mm 3 mps 754 mmHg 68%

    20 September, Friday

    Time Temperature Precipitation Wind Pressure Humidity
    00:00 +24°C° 0 mm 3 mps 754 mmHg 66%
    01:00 +22°C° 0 mm 3 mps 754 mmHg 62%
    02:00 +22°C° 0 mm 4 mps 754 mmHg 58%
    03:00 +22°C° 0 mm 4 mps 754 mmHg 54%
    04:00 +21°C° 0 mm 4 mps 755 mmHg 55%
    05:00 +21°C° 0 mm 3 mps 755 mmHg 56%
    06:00 +20°C° 0 mm 3 mps 755 mmHg 57%
    07:00 +21°C° 0 mm 4 mps 755 mmHg 56%
    08:00 +22°C° 0 mm 4 mps 756 mmHg 56%
    09:00 +23°C° 0 mm 4 mps 756 mmHg 55%
    10:00 +25°C° 0 mm 4 mps 756 mmHg 54%
    11:00 +26°C° 0 mm 3 mps 755 mmHg 52%
    12:00 +26°C° 0 mm 3 mps 755 mmHg 50%
    13:00 +27°C° 0 mm 3 mps 754 mmHg 49%
    14:00 +27°C° 0 mm 3 mps 754 mmHg 47%
    15:00 +28°C° 0 mm 2 mps 753 mmHg 46%
    16:00 +27°C° 0 mm 2 mps 753 mmHg 51%
    17:00 +26°C° 0 mm 2 mps 753 mmHg 55%
    18:00 +25°C° 0 mm 2 mps 753 mmHg 60%
    19:00 +24°C° 0 mm 2 mps 754 mmHg 61%
    20:00 +24°C° 0 mm 2 mps 754 mmHg 61%
    21:00 +23°C° 0 mm 2 mps 754 mmHg 62%
    22:00 +23°C° 0 mm 2 mps 754 mmHg 61%
    23:00 +21°C° 0 mm 2 mps 754 mmHg 59%

    21 September, Saturday

    Time Temperature Precipitation Wind Pressure Humidity
    00:00 +20°C° 0 mm 2 mps 753 mmHg 57%
    01:00 +20°C° 0 mm 2 mps 753 mmHg 57%
    02:00 +20°C° 0 mm 2 mps 753 mmHg 56%
    03:00 +19°C° 0 mm 2 mps 754 mmHg 56%
    04:00 +19°C° 0 mm 2 mps 754 mmHg 57%
    05:00 +19°C° 0 mm 3 mps 754 mmHg 59%
    06:00 +18°C° 0 mm 3 mps 754 mmHg 60%
    07:00 +20°C° 0 mm 3 mps 754 mmHg 58%
    08:00 +22°C° 0 mm 3 mps 754 mmHg 56%
    09:00 +25°C° 0 mm 4 mps 754 mmHg 54%
    10:00 +26°C° 0 mm 4 mps 754 mmHg 52%
    11:00 +28°C° 0 mm 4 mps 753 mmHg 50%
    12:00 +29°C° 0 mm 4 mps 753 mmHg 48%
    13:00 +30°C° 0 mm 4 mps 752 mmHg 49%
    14:00 +30°C° 0 mm 3 mps 752 mmHg 50%
    15:00 +30°C° 0 mm 3 mps 751 mmHg 50%
    16:00 +29°C° 0 mm 3 mps 751 mmHg 55%
    17:00 +28°C° 0 mm 3 mps 751 mmHg 60%
    18:00 +26°C° 0 mm 3 mps 751 mmHg 64%
    19:00 +26°C° 0 mm 3 mps 751 mmHg 64%
    20:00 +26°C° 0 mm 3 mps 751 mmHg 63%
    21:00 +26°C° 0 mm 3 mps 751 mmHg 63%
    22:00 +25°C° 0 mm 3 mps 751 mmHg 62%
    23:00 +25°C° 0 mm 3 mps 751 mmHg 61%
    Show more